Location: Asheville, NC
(35.6000°N, 82.5500°W)
Time: 17:13:33
(UTC-04:00)

Vanguard 2 - Pass Details

Date: 11 March 2018
Orbit: 553 x 2939 km, 32.9° (Epoch: 17 June)

Event Time Altitude Azimuth Distance (km) Brightness Sun altitude
Rises 20:08:11 0° 281° (WNW) 6,488 14.4 -7.7°
Reaches altitude 10° 20:14:17 10° 269° (W) 5,140 13.4 -8.9°
Maximum altitude 20:23:37 21° 228° (SW) 3,599 11.5 -10.8°
Drops below altitude 10° 20:30:41 10° 184° (S) 3,742 11.0 -12.3°
Sets 20:34:15 0° 168° (SSE) 4,342 11.2 -13.0°
